Погода в Икасте

Дания     56°08′19″N   9°08′46″E
темп.,
°C
ветер,
м/с
пор.,
м/с
влажн.,
%
обл.,
%
осадки,
мм/ч
давл.,
гПа
погр.,
м
12 августа, пт
пт1223:00+17ссв22763 0.0 102325
02:00+16всв22835 0.0 102411
05:00+15юв22830 0.0 102315
08:00+19зюз12660 0.0 1023132
11:00+25ю11450 0.0 1023664
14:00+28ю23342 0.0 10221515
17:00+29ю33326 0.0 10211920
20:00+24сз224860 0.0 102169
13 августа, сб
сб1323:00+18св226818 0.0 102126
02:00+17ю226014 0.0 102120
05:00+17ю226168 0.0 102111
08:00+20юв11545 0.0 102079
11:00+26юв223653 0.0 1020671
14:00+29ююз222968 0.0 10191612
17:00+30з232734 0.0 10182325
20:00+24ссз474817 0.0 1018215
14 августа, вс
вс1423:00+19с226324 0.0 101811
02:00+18всв116556 0.0 101711
05:00+18ююв116357 0.0 101711
08:00+21юв125343 0.0 101694
11:00+27юв34374 0.0 1015880
14:00+30юв44306 0.0 10142324
17:00+30вюв542910 0.0 10122334
20:00+25юв5843100 0.0 1012317
15 августа, пн
пн1523:00+22юв3754100 0.0 1012171
02:00+20юв41068100 0.0 1011255
05:00+19вюв4969100 0.0 1010240
08:00+20вюв5967100 0.1 1009321
11:00+22в697298 1.4 1008462
14:00+27вюв5749100 1.7 10071114
17:00+28в55427 0.0 10051411
20:00+24в596654 0.0 1004497
16 августа, вт
вт1623:00+20юв388195 0.7 1004192
02:00+19ююв389549 1.9 1004235
05:00+18ююв349742 0.4 100491
08:00+19ююв2389100 0.4 1004154
11:00+24юз3366100 0.0 1004654
14:00+28юз454638 0.3 10041744
17:00+24з575937 1.2 1005638
20:00+22сз35696 1.4 1006285